DW1107 Weather Reports


Display with metric or nautical units.
time (UTC)temp
F
wind
direction
speed
MPH
gust
MPH
rain 1hr
in
rain 24hr
in
rain mn
in
humidity
%
barometer
mb
20260508121600 50 1 4.0 10.0 0.00 0.00 0.00 81 1003.2
20260508120101 49 315 4.0 12.0 0.00 0.00 0.00 83 1003.2
20260508114600 48 315 4.0 9.0 0.00 0.00 0.00 84 1003.2
20260508113106 47 358 3.0 7.0 0.00 0.00 0.00 86 1003.0
20260508111602 0 9 2.0 5.0 0.00 0.00 0.00 1003.0
20260508110056 0 276 3.0 5.0 0.00 0.00 0.00 1002.9
20260508104601 0 270 1.0 3.0 0.00 0.00 0.00 1002.8
20260508103056 0 0 0.0 2.0 0.00 0.00 0.00 1002.7
20260508101604 0 0 0.0 1.0 0.00 0.00 0.00 1002.7
20260508100051 0 0 0.0 2.0 0.00 0.00 0.00 1002.5
20260508094612 0 245 0.0 2.0 0.00 0.00 0.00 1002.5
20260508093057 0 292 0.0 2.0 0.00 0.00 0.00 1002.4
20260508091553 0 0 0.0 2.0 0.00 0.00 0.00 1002.5
20260508090055 0 252 0.0 2.0 0.00 0.00 0.00 1002.5
20260508084555 0 256 0.0 3.0 0.00 0.00 0.00 1002.4
20260508083058 0 273 1.0 5.0 0.00 0.00 0.00 1002.2
20260508081619 0 324 1.0 3.0 0.00 0.00 0.00 1002.4
20260508080053 0 275 3.0 5.0 0.00 0.00 0.00 1002.4
20260508074553 0 0 1.0 4.0 0.00 0.00 0.00 1002.7
20260508073053 0 34 2.0 6.0 0.00 0.00 0.00 1002.8
20260508071557 0 156 2.0 6.0 0.00 0.00 0.00 1002.7
20260508070057 0 319 2.0 7.0 0.00 0.00 0.00 1002.6
20260508064555 0 6 2.0 7.0 0.00 0.00 0.00 1002.4
20260508063103 0 265 0.0 5.0 0.00 0.00 0.00 1002.7
20260508061555 0 353 1.0 3.0 0.00 0.00 0.00 1002.4
20260508060058 0 329 0.0 1.0 0.00 0.00 0.00 1002.4
20260508054554 0 0 0.0 1.0 0.00 0.00 0.00 1002.6
20260508053057 0 348 0.0 3.0 0.00 0.00 0.00 1002.6
20260508051556 0 4 0.0 3.0 0.00 0.00 0.00 1002.4
20260508050055 0 315 1.0 3.0 0.00 0.00 0.00 1002.6
20260508044552 0 341 1.0 3.0 0.00 0.00 0.00 1002.8
20260508043054 0 281 0.0 2.0 0.00 0.00 0.00 1003.0
20260508041553 0 0 0.0 3.0 0.00 0.00 0.00 1002.6
20260508034555 0 0 0.0 2.0 0.00 0.00 0.00 1002.7
20260508033054 0 0 0.0 4.0 0.00 0.00 0.00 1002.7
20260508031557 0 266 0.0 3.0 0.00 0.00 0.00 1002.9
20260508030055 0 185 0.0 4.0 0.00 0.00 0.00 1003.2
20260508024556 0 206 0.0 3.0 0.00 0.00 0.00 1003.3
20260508023054 0 276 1.0 6.0 0.00 0.00 0.00 1003.5
20260508021556 0 248 2.0 9.0 0.00 0.00 0.00 1003.5
20260508020104 0 291 3.0 7.0 0.00 0.00 0.00 1003.4
20260508014559 0 267 1.0 6.0 0.00 0.00 0.00 1003.5
20260508013053 0 205 2.0 6.0 0.00 0.00 0.00 1003.4
20260508011553 0 238 1.0 4.0 0.00 0.00 0.00 1003.6
20260508010055 0 0 0.0 2.0 0.00 0.00 0.00 1003.1
20260508004602 0 0 0.0 1.0 0.00 0.00 0.00 1003.0
20260508003100 0 217 0.0 1.0 0.00 0.00 0.00 1002.8
20260508001557 0 169 0.0 1.0 0.00 0.00 0.00 1002.8
20260508000059 0 219 0.0 1.0 0.00 0.00 0.00 1002.7
20260507234559 0 0 0.0 3.0 0.00 0.00 0.00 1002.7
20260507233054 0 240 2.0 4.0 0.00 0.00 0.00 1002.7
20260507231559 51 307 0.0 4.0 0.00 0.00 0.00 82 1002.5
20260507230056 53 19 0.0 4.0 0.00 0.00 0.00 80 1002.7
20260507224559 55 348 1.0 5.0 0.00 0.00 0.00 79 1002.5
20260507223055 56 312 2.0 4.0 0.00 0.00 0.00 76 1002.2
20260507221555 57 0 1.0 7.0 0.00 0.00 0.00 73 1002.4
20260507220057 57 212 3.0 6.0 0.00 0.00 0.00 75 1002.2
20260507214604 57 314 1.0 7.0 0.00 0.00 0.00 76 1002.2
20260507213053 56 137 3.0 8.0 0.00 0.00 0.00 78 1002.3
20260507211559 56 205 1.0 9.0 0.00 0.00 0.00 79 1002.0
20260507210059 55 23 3.0 9.0 0.00 0.00 0.00 82 1002.2
20260507204556 55 236 5.0 8.0 0.00 0.00 0.00 83 1002.2
20260507203105 55 233 4.0 13.0 0.00 0.00 0.00 87 1002.0
20260507201559 53 243 4.0 10.0 0.00 0.00 0.00 88 1002.2
20260507200108 53 214 3.0 9.0 0.00 0.00 0.00 91 1002.2
20260507194556 54 232 3.0 10.0 0.00 0.00 0.00 94 1002.2
20260507193058 52 294 4.0 10.0 0.00 0.00 0.00 96 1002.3
20260507191604 52 271 3.0 8.0 0.00 0.00 0.00 97 1002.4
20260507190105 52 201 2.0 9.0 0.00 0.00 0.00 97 1002.2
20260507184601 51 289 4.0 9.0 0.00 0.00 0.00 97 1001.9
20260507183104 0 353 2.0 8.0 0.00 0.00 0.00 1002.2
20260507181603 0 293 3.0 11.0 0.00 0.00 0.00 1002.2
20260507180059 0 296 4.0 10.0 0.00 0.00 0.00 1002.2
20260507174559 0 329 3.0 7.0 0.00 0.00 0.00 1002.1
20260507173106 0 353 2.0 9.0 0.00 0.00 0.00 1001.8
20260507171604 0 299 4.0 16.0 0.00 0.00 0.00 1002.6
20260507164606 0 260 2.0 5.0 0.00 0.00 0.00 1001.9
20260507163056 0 173 6.0 12.0 0.00 0.00 0.00 1001.0
20260507161558 0 154 8.0 13.0 0.00 0.00 0.00 1001.4
20260507160057 0 170 8.0 12.0 0.00 0.00 0.00 1002.0
20260507154601 0 142 5.0 11.0 0.00 0.00 0.00 1002.4
20260507153106 0 105 3.0 5.0 0.00 0.00 0.00 1002.6
20260507151553 0 144 8.0 12.0 0.00 0.00 0.00 1003.4
20260507150059 0 180 3.0 8.0 0.00 0.00 0.00 1003.0
20260507144556 0 109 2.0 4.0 0.00 0.00 0.00 1003.4
20260507143058 0 129 1.0 3.0 0.00 0.00 0.00 1004.2
20260507141554 0 0 0.0 3.0 0.00 0.00 0.00 1004.3
20260507140057 0 258 0.0 4.0 0.00 0.00 0.00 1004.7
20260507134603 0 161 9.0 16.0 0.00 0.00 0.00 1004.1
20260507133115 0 223 8.0 17.0 0.00 0.00 0.00 1004.2
20260507131554 0 203 13.0 21.0 0.00 0.00 0.00 1003.5
20260507130106 0 183 11.0 23.0 0.00 0.00 0.00 1003.3
20260507124555 0 198 14.0 22.0 0.00 0.00 0.00 1003.5
20260507123054 0 214 13.0 23.0 0.00 0.00 0.00 1003.6